Temperature
19 19 19 19 19 19 19 19 19 19 19 19 19 18 18 18 18 18 18 18 18 18 18 18 18 18 17 17 17 17 17 17 17 17 17 17 17 17 16 16 16 16 16
19 19 19 19 19 18 18 18 18 18 18 18 18 18 18 18 18 18 18 18 17 17 18 17 17 17 17 17 17 17 17 17 17 17 17 17 16 16 16 16 16 15 15
19 19 19 18 18 18 18 18 18 18 18 18 18 18 18 18 18 18 18 18 17 17 17 17 17 17 17 17 17 17 17 17 16 16 16 16 16 16 16 15 15 15 15
19 19 18 18 18 18 18 18 18 18 18 18 18 18 18 18 18 17 17 17 17 17 17 17 17 17 17 17 16 17 16 16 16 16 16 16 16 15 15 15 15 15 15
19 18 18 18 18 18 18 18 18 18 18 18 18 18 17 17 17 17 17 17 17 17 17 17 17 17 16 16 16 16 16 16 16 16 16 15 15 15 15 15 14 14 14
19 18 18 18 18 18 17 17 17 17 17 17 17 17 17 17 17 17 17 17 17 17 17 17 17 16 16 16 16 16 16 16 16 15 15 15 15 15 15 14 14 14 14
18 18 18 18 17 17 17 17 17 17 17 17 17 17 17 17 17 17 17 17 17 17 17 16 16 16 16 16 16 16 16 16 15 15 15 15 15 15 14 14 14 14 14
18 18 18 18 17 17 17 17 17 17 17 17 17 17 17 17 17 17 17 17 17 16 16 16 16 16 16 16 16 15 15 15 15 15 15 15 15 15 14 14 14 14 13
17 17 17 17 17 17 17 17 17 17 17 17 16 16 16 16 16 16 16 16 16 16 16 16 15 15 15 15 15 15 15 15 15 15 14 14 14 14 14 14 14 13 13
17 17 17 17 17 17 17 17 16 16 16 16 16 16 16 16 16 16 16 16 16 15 15 15 15 15 15 15 15 14 14 14 14 14 14 14 14 14 14 14 13 13 13
16 16 16 16 16 16 16 16 16 16 16 16 16 16 16 16 15 15 15 15 15 15 15 15 15 15 15 14 14 14 14 14 14 13 13 13 13 13 13 13 13 13 13
16 16 16 16 16 16 16 16 16 16 15 15 15 15 15 15 15 15 15 15 15 14 14 14 14 14 14 14 14 14 14 13 13 13 13 13 13 13 13 13 13 13 13
16 15 15 15 16 16 16 15 15 15 15 15 15 15 15 15 15 15 15 14 14 14 14 14 14 14 14 14 14 13 13 13 13 13 12 12 12 12 12 12 12 12 12
15 15 15 15 15 15 15 15 15 15 15 15 15 15 14 14 14 14 14 14 14 14 14 14 14 14 13 13 13 13 13 13 12 12 12 12 12 12 12 12 12 12 12
15 15 15 15 15 15 15 15 15 15 14 15 15 15 14 14 14 14 14 14 13 13 13 13 13 13 13 13 13 12 12 12 12 12 12 12 12 12 12 12 12 12 11
14 14 14 14 14 14 14 14 14 14 14 14 14 14 14 14 14 13 13 13 13 13 13 13 12 12 12 12 12 12 12 12 12 12 11 11 11 11 11 11 11 11 11
14 14 14 14 14 14 14 14 14 14 14 14 14 14 14 14 13 13 13 13 13 13 13 12 12 12 12 12 12 11 11 11 11 11 11 11 11 11 11 11 11 11 11
14 14 14 14 14 14 14 14 14 14 14 13 13 13 13 13 13 13 13 13 12 12 12 12 12 11 11 11 11 11 11 11 11 11 11 11 11 11 11 11 11 11 11
14 14 14 13 13 13 13 13 13 13 13 13 13 13 13 13 12 12 12 12 12 12 12 11 11 11 11 11 11 11 10 10 10 10 10 10 10 10 10 10 10 10 10
13 13 13 13 13 13 13 13 13 13 13 13 13 13 12 12 12 12 12 12 11 11 11 11 11 11 11 10 10 10 10 10 10 10 10 10 10 10 10 10 10 10 10
13 13 13 13 13 13 13 13 13 13 13 12 12 12 12 12 12 12 11 11 11 11 11 11 11 10 10 10 10 10 10 10 10 10 10 10 10 10 10 10 10 10 10
13 13 13 13 13 13 12 12 12 12 12 12 12 12 12 11 11 11 11 11 11 11 10 10 10 10 10 10 9 9 9 9 9 9 9 9 10 9 9 9 9 10 10
13 13 13 13 13 12 12 12 12 12 12 12 12 12 11 11 11 11 10 10 10 10 10 10 10 10 9 9 9 9 9 9 9 9 9 9 9 9 9 9 9 9 9
13 13 13 12 12 12 12 12 12 12 12 11 11 11 11 11 11 10 10 10 10 10 10 10 10 9 9 9 9 9 9 9 9 9 9 9 9 9 9 9 9 9 9
12 12 12 12 12 12 12 12 12 12 11 11 11 11 11 11 10 10 10 10 10 10 10 10 9 9 9 9 9 9 8 8 8 8 8 8 8 9 8 8 9 9 9
12 12 12 12 12 12 11 11 11 11 11 11 11 11 11 10 10 10 10 10 9 9 9 9 9 9 9 8 8 8 8 8 8 8 8 8 8 8 8 8 8 8 8
Wind_Speed
4 5 4 5 6 6 5 5 5 4 4 4 4 5 5 5 5 5 6 5 5 5 5 5 5 4 3 3 3 3 3 2 3 3 2 1 2 2 3 4 5 6 7
2 3 4 4 5 6 6 5 5 5 5 5 4 5 6 5 5 6 6 6 5 6 6 5 5 5 4 4 3 4 3 3 3 4 3 2 2 3 3 4 4 4 5
3 3 3 3 4 5 5 5 4 5 5 5 5 6 6 5 6 6 6 6 6 6 6 5 5 4 5 4 4 3 3 3 2 3 4 2 2 2 2 2 3 2 4
3 3 3 3 3 4 4 4 4 5 5 5 6 5 5 6 6 6 6 6 5 5 5 5 4 4 4 4 4 3 3 2 2 3 3 3 2 2 2 2 3 3 3
3 3 3 3 2 3 4 4 5 5 7 5 5 5 6 6 6 5 5 6 5 5 4 4 4 2 2 2 3 2 2 2 3 3 3 2 2 2 2 2 2 2 3
2 2 2 3 3 3 3 3 4 4 4 4 5 5 5 6 4 4 4 4 4 5 4 3 3 3 2 3 2 2 2 3 3 3 3 3 3 3 2 3 2 2 3
1 2 2 3 3 3 4 3 3 4 4 4 4 4 4 4 3 3 4 4 4 3 3 3 4 2 3 2 1 1 1 2 4 4 4 4 4 3 3 3 3 4 4
1 2 2 2 3 3 3 3 3 3 3 4 4 4 3 3 2 2 3 3 3 3 3 3 2 2 2 2 1 2 1 1 2 2 2 3 3 2 4 5 5 4 4
2 2 2 2 2 2 2 3 3 3 3 3 3 3 2 2 2 2 2 2 2 2 2 2 2 2 2 3 2 2 1 1 1 1 1 2 3 3 3 2 3 3 3
2 2 2 2 2 3 3 3 3 3 3 3 3 2 2 2 2 3 3 2 2 2 1 2 2 3 3 3 3 2 2 2 1 1 2 2 3 4 4 3 3 3 2
2 2 2 2 3 3 2 2 2 2 3 3 2 2 2 2 3 3 2 2 2 2 2 2 1 3 3 4 4 3 4 3 2 2 2 2 2 2 2 3 3 2 2
2 2 2 2 2 2 1 2 2 3 3 3 2 2 2 2 3 3 3 3 2 2 2 1 1 2 2 3 3 3 3 2 2 2 2 2 1 1 1 1 2 2 2
1 2 1 1 1 1 1 1 1 2 2 2 2 2 2 1 2 3 3 2 2 2 1 1 2 3 2 3 4 4 3 2 2 2 2 2 1 2 2 1 2 2 1
2 1 1 1 0 1 1 1 1 1 2 2 1 1 1 1 1 1 1 1 1 1 0 1 1 2 3 3 2 2 3 3 3 2 2 2 1 1 2 2 2 2 1
2 2 2 2 1 1 0 1 1 0 1 1 1 1 1 1 1 2 2 1 1 1 0 1 1 1 1 1 1 2 2 1 2 1 1 2 2 1 2 1 1 1 1
2 2 2 1 1 1 2 1 4 3 3 3 3 1 1 2 2 2 2 2 1 1 1 1 1 1 1 1 1 1 1 1 1 1 2 2 2 1 1 1 1 1 1
1 1 1 1 1 1 1 1 1 1 3 3 2 3 3 3 2 2 2 1 1 1 1 2 2 1 1 1 1 1 0 0 1 1 2 2 1 1 2 2 2 2 2
1 1 1 1 1 1 1 1 1 1 1 1 1 2 3 3 2 2 2 1 1 2 2 2 1 1 1 0 0 0 1 1 1 1 1 1 1 1 2 2 1 2 2
2 1 1 1 1 1 1 1 1 0 0 1 2 2 2 2 1 1 2 1 2 1 1 0 0 0 1 1 1 1 0 1 1 1 1 1 2 2 2 2 2 3 3
1 1 1 1 2 1 1 1 1 0 0 1 1 1 2 1 0 1 1 2 2 1 1 0 0 0 1 1 1 1 0 1 1 1 1 1 2 2 3 3 3 3 3
2 1 2 2 2 1 0 0 1 1 1 0 1 2 3 1 1 2 2 2 2 1 0 0 0 0 0 0 1 1 1 1 1 2 2 2 2 3 3 3 3 3 3
2 1 1 1 1 1 1 1 1 1 1 1 1 2 3 2 2 1 1 1 0 0 0 1 1 1 0 0 1 1 1 1 1 2 3 3 2 3 3 3 3 3 3
3 3 1 1 0 0 2 2 1 1 1 1 0 1 1 2 1 1 1 1 0 0 0 0 0 1 1 1 1 1 1 2 2 2 3 3 3 3 4 4 4 4 3
3 3 2 1 0 1 1 1 1 1 1 1 1 1 1 1 1 1 1 1 0 0 1 1 0 1 2 1 1 1 2 2 3 2 4 4 4 4 4 4 4 4 4
3 2 2 1 1 1 2 2 2 1 1 1 1 1 1 1 1 1 0 0 1 0 0 0 0 1 1 2 1 1 1 2 2 3 4 4 4 4 5 5 5 4 4
2 2 2 2 1 2 2 2 1 1 1 2 2 1 1 1 1 1 1 1 1 1 1 1 1 1 1 0 0 1 1 1 2 4 5 4 5 4 5 5 6 5 5
Wind_Direction
198 207 215 205 208 217 224 234 235 241 243 232 224 220 218 223 225 228 238 235 236 241 245 238 239 249 249 250 253 251 240 238 258 277 268 181 168 185 174 189 201 198 202
188 199 209 209 204 215 224 229 233 231 236 235 225 226 227 227 228 230 236 239 235 239 244 244 244 244 240 249 252 253 245 234 239 260 264 244 233 204 193 220 225 217 204
190 205 208 218 214 220 229 233 233 234 238 239 231 229 234 235 233 234 235 241 242 240 241 244 243 244 244 244 245 248 251 252 234 247 258 253 250 220 207 244 258 234 244
188 202 214 226 234 237 238 237 236 236 237 243 245 242 241 241 239 237 238 241 245 247 245 249 250 246 246 248 245 246 254 251 241 241 250 253 249 228 202 228 256 247 256
189 207 218 226 237 245 244 242 241 240 242 238 244 246 247 248 245 238 241 240 240 249 247 240 237 215 208 230 252 250 248 243 243 242 245 251 254 250 239 250 251 260 258
196 214 213 222 228 241 246 245 246 246 249 243 242 244 248 252 251 226 226 243 237 239 245 239 217 195 187 185 230 250 241 235 238 239 251 247 244 249 249 248 246 254 259
221 224 217 220 226 234 246 244 249 251 245 243 246 244 249 264 270 229 211 231 241 236 234 227 231 208 172 163 171 172 249 258 241 237 245 251 244 236 229 243 253 260 259
256 263 246 241 243 240 237 238 243 253 253 243 246 246 246 260 254 227 222 216 233 231 222 221 211 199 218 163 202 220 224 270 255 216 223 235 237 238 227 227 238 253 255
266 284 282 268 262 252 246 249 243 242 246 245 242 243 246 253 205 199 207 223 222 230 223 213 204 188 198 178 190 196 217 280 324 103 187 224 232 240 231 223 230 226 249
289 297 299 289 275 267 260 254 244 234 234 243 240 230 227 231 202 185 195 218 223 236 231 205 206 199 193 180 200 207 224 246 245 260 275 253 233 224 209 205 215 228 246
306 305 304 291 273 262 259 249 234 232 231 229 237 222 208 196 181 182 195 222 231 239 242 236 218 170 173 186 205 224 233 243 248 247 250 239 218 201 195 193 199 209 228
322 304 300 297 282 281 264 242 230 228 224 215 209 225 214 181 168 179 184 224 236 238 247 239 196 169 180 205 210 234 252 255 241 240 246 246 225 214 206 185 181 193 208
296 289 292 303 326 332 263 242 236 229 232 235 221 222 219 164 143 149 167 215 239 241 258 263 226 209 221 223 216 214 218 225 224 225 236 245 239 210 216 227 207 196 209
286 275 268 259 247 20 2 314 282 286 269 262 250 238 208 127 110 112 136 169 192 228 316 0 313 242 249 237 230 216 216 222 222 232 240 250 242 220 217 215 206 200 200
274 260 244 235 218 151 117 358 330 22 214 209 289 268 217 218 195 163 166 178 171 201 175 224 244 230 198 220 233 231 228 219 224 245 256 256 259 251 253 242 219 209 201
273 281 268 242 213 184 160 95 41 54 77 89 97 118 70 123 150 147 148 156 161 156 152 208 229 233 217 216 230 246 232 215 233 249 264 260 257 255 252 260 254 243 233
292 291 276 277 270 231 195 205 178 84 75 69 88 124 145 147 142 167 177 187 258 176 176 224 237 240 244 218 195 212 223 230 243 246 261 259 257 258 250 239 247 260 248
280 277 265 252 256 252 235 255 252 194 133 95 87 137 140 152 176 194 173 125 239 207 205 213 223 235 231 178 80 354 335 310 265 251 256 257 254 256 254 255 252 269 263
299 281 277 271 265 263 260 261 282 358 94 102 91 95 128 138 164 190 177 207 231 231 206 205 218 305 16 16 4 337 323 311 302 289 275 269 263 257 254 257 258 265 264
290 295 256 255 246 245 238 265 305 313 197 136 129 115 112 125 198 153 197 245 251 248 230 207 153 69 32 356 339 316 294 291 296 292 296 291 277 270 268 265 263 261 261
283 234 203 224 233 258 288 332 313 292 268 192 142 128 152 204 241 227 230 234 244 252 283 24 39 35 1 311 330 307 302 292 296 293 281 273 277 279 274 269 272 268 268
292 273 241 261 259 235 240 268 268 268 296 304 152 148 178 234 262 273 271 254 238 191 301 260 255 266 253 50 338 317 302 296 304 308 300 288 275 271 275 276 277 277 270
274 276 270 249 254 203 249 248 228 226 244 280 264 167 196 252 281 294 306 313 321 146 214 287 280 298 9 46 19 344 318 316 314 304 299 295 290 284 277 270 270 273 273
289 278 272 271 300 289 284 286 275 275 298 304 299 269 230 219 267 287 291 283 294 155 87 83 69 350 352 8 32 35 17 346 328 319 308 294 289 283 280 274 269 269 268
309 316 314 295 287 297 290 283 283 288 290 290 292 295 284 244 264 295 299 210 194 162 73 347 328 296 321 348 7 357 20 11 339 311 291 286 286 287 289 287 283 275 266
300 301 302 294 289 290 286 290 292 302 299 295 295 300 305 300 293 296 298 281 272 241 225 252 270 286 297 13 101 78 89 353 318 310 290 281 282 279 283 282 288 280 277
Height
1512 1513 1515 1516 1517 1518 1519 1520 1521 1522 1524 1524 1525 1525 1526 1526 1527 1527 1528 1528 1528 1528 1528 1529 1529 1529 1530 1530 1531 1531 1531 1531 1531 1531 1531 1531 1530 1530 1530 1529 1529 1528 1528
1510 1511 1512 1513 1514 1515 1515 1516 1518 1518 1519 1520 1521 1522 1522 1522 1523 1523 1524 1524 1524 1525 1525 1525 1525 1526 1526 1527 1527 1527 1527 1527 1528 1527 1527 1528 1527 1527 1527 1526 1526 1525 1525
1507 1508 1509 1509 1510 1511 1512 1513 1514 1515 1516 1517 1517 1518 1518 1519 1519 1519 1520 1520 1521 1520 1521 1521 1521 1522 1522 1523 1523 1523 1523 1524 1524 1524 1523 1524 1524 1523 1523 1523 1522 1522 1521
1504 1505 1506 1506 1507 1508 1509 1509 1510 1511 1511 1512 1513 1514 1514 1515 1515 1516 1516 1516 1516 1516 1516 1517 1517 1518 1518 1518 1519 1519 1520 1520 1520 1520 1519 1519 1519 1519 1519 1519 1518 1518 1518
1502 1502 1502 1503 1504 1504 1505 1506 1506 1507 1508 1508 1509 1510 1511 1511 1511 1511 1511 1512 1511 1512 1512 1512 1513 1513 1514 1515 1515 1516 1516 1516 1516 1515 1515 1515 1515 1515 1515 1515 1515 1514 1514
1499 1499 1499 1500 1500 1500 1501 1502 1502 1503 1503 1504 1505 1505 1506 1507 1507 1507 1507 1507 1507 1508 1508 1508 1509 1509 1510 1511 1511 1512 1512 1512 1511 1511 1511 1511 1511 1511 1511 1511 1511 1511 1511
1496 1496 1496 1497 1497 1497 1497 1498 1498 1498 1499 1500 1501 1502 1502 1502 1503 1503 1503 1503 1503 1503 1504 1504 1505 1505 1506 1506 1507 1508 1508 1508 1508 1508 1507 1507 1507 1507 1507 1507 1507 1507 1507
1494 1494 1494 1494 1493 1493 1493 1494 1494 1495 1495 1496 1497 1497 1498 1498 1499 1499 1499 1500 1500 1500 1500 1501 1501 1501 1502 1503 1503 1503 1503 1504 1504 1504 1503 1503 1503 1503 1503 1503 1503 1503 1504
1491 1491 1491 1491 1491 1490 1490 1490 1491 1491 1492 1492 1493 1494 1494 1494 1495 1495 1495 1496 1496 1496 1497 1497 1498 1498 1499 1500 1500 1500 1500 1500 1500 1500 1500 1499 1499 1499 1499 1499 1499 1500 1500
1489 1489 1488 1488 1488 1488 1487 1488 1488 1488 1488 1489 1489 1490 1490 1491 1491 1491 1492 1492 1492 1493 1494 1494 1495 1495 1496 1496 1497 1497 1497 1497 1497 1497 1497 1496 1496 1496 1496 1496 1496 1496 1496
1487 1486 1486 1485 1485 1485 1485 1485 1485 1485 1485 1485 1486 1487 1487 1487 1488 1488 1489 1489 1490 1490 1490 1491 1492 1492 1493 1493 1494 1494 1494 1494 1494 1494 1494 1494 1493 1492 1492 1493 1493 1493 1494
1485 1484 1484 1483 1483 1483 1483 1483 1483 1482 1482 1482 1483 1484 1484 1484 1485 1485 1486 1487 1488 1488 1488 1488 1489 1489 1490 1490 1491 1491 1491 1491 1492 1491 1491 1491 1491 1491 1491 1491 1491 1491 1491
1482 1482 1481 1481 1480 1480 1480 1480 1481 1480 1480 1481 1481 1481 1481 1482 1482 1483 1484 1484 1485 1485 1485 1486 1486 1486 1487 1487 1487 1487 1488 1488 1489 1489 1489 1489 1489 1489 1489 1489 1489 1489 1488
1481 1480 1479 1479 1478 1478 1479 1479 1479 1479 1479 1479 1479 1479 1479 1479 1479 1480 1480 1481 1481 1482 1483 1483 1483 1483 1484 1484 1483 1485 1485 1485 1486 1486 1486 1487 1487 1487 1487 1487 1486 1486 1486
1478 1477 1477 1477 1477 1476 1477 1477 1477 1477 1477 1478 1477 1477 1477 1477 1477 1477 1477 1478 1478 1479 1480 1480 1481 1481 1481 1481 1481 1482 1483 1483 1483 1483 1484 1484 1484 1485 1485 1485 1485 1485 1484
1476 1476 1476 1476 1476 1475 1475 1475 1476 1476 1476 1476 1476 1476 1475 1476 1475 1475 1476 1476 1477 1478 1478 1478 1479 1479 1479 1479 1480 1480 1480 1480 1481 1481 1481 1482 1482 1482 1483 1483 1483 1483 1482
1475 1475 1475 1475 1475 1474 1474 1474 1474 1475 1474 1474 1474 1474 1474 1474 1474 1474 1474 1475 1476 1476 1477 1477 1478 1478 1478 1478 1478 1479 1479 1479 1479 1479 1479 1480 1480 1480 1481 1481 1481 1481 1481
1474 1474 1474 1474 1474 1473 1473 1473 1473 1473 1473 1473 1473 1473 1473 1473 1473 1473 1474 1474 1474 1475 1476 1476 1477 1477 1477 1477 1477 1477 1477 1477 1477 1477 1477 1477 1478 1478 1478 1478 1478 1478 1478
1473 1473 1473 1473 1473 1473 1472 1472 1472 1472 1472 1472 1472 1472 1472 1472 1472 1472 1473 1473 1473 1474 1475 1475 1475 1475 1475 1475 1475 1475 1475 1475 1476 1476 1475 1475 1476 1476 1476 1476 1476 1476 1476
1472 1472 1471 1472 1472 1472 1471 1471 1471 1471 1471 1471 1471 1471 1471 1471 1471 1471 1472 1473 1473 1473 1473 1474 1474 1474 1474 1474 1474 1474 1474 1474 1474 1474 1474 1474 1474 1474 1474 1474 1474 1474 1473
1472 1471 1471 1471 1471 1471 1471 1470 1470 1470 1470 1470 1470 1470 1470 1470 1470 1470 1471 1471 1472 1472 1472 1472 1472 1472 1472 1472 1472 1472 1472 1472 1472 1472 1472 1472 1472 1471 1471 1472 1472 1471 1471
1470 1470 1470 1470 1470 1470 1470 1470 1470 1469 1469 1469 1469 1469 1469 1469 1469 1470 1470 1470 1470 1470 1470 1470 1470 1470 1470 1470 1470 1470 1470 1470 1470 1470 1470 1469 1469 1469 1469 1469 1469 1469 1469
1469 1469 1469 1469 1469 1469 1469 1469 1468 1468 1468 1468 1468 1468 1468 1468 1468 1468 1468 1468 1467 1467 1467 1467 1467 1468 1468 1468 1468 1468 1468 1468 1467 1467 1467 1466 1466 1466 1466 1466 1465 1466 1466
1468 1467 1467 1468 1467 1468 1468 1467 1467 1467 1467 1467 1467 1467 1467 1466 1466 1466 1466 1466 1466 1466 1465 1465 1465 1465 1465 1465 1465 1464 1464 1464 1464 1463 1463 1463 1463 1463 1463 1463 1462 1463 1463
1466 1466 1466 1466 1466 1466 1466 1466 1466 1466 1466 1466 1466 1466 1465 1465 1465 1465 1464 1464 1463 1463 1463 1463 1463 1463 1462 1462 1462 1461 1461 1460 1460 1460 1459 1459 1459 1458 1459 1459 1459 1459 1459
1464 1464 1464 1464 1464 1464 1464 1464 1464 1464 1464 1465 1465 1464 1464 1464 1463 1463 1462 1462 1461 1460 1460 1460 1460 1459 1459 1459 1458 1458 1457 1457 1456 1456 1455 1455 1454 1454 1454 1454 1454 1455 1455